Regional Weather Roundup
Issued by NWS

Home | Current Version | Previous Version | Text Only | Print | Product List | Glossary Off
Versions: 1 2 3 4 5 6 7 8 9 10 11 12 13 14 15 16 17 18 19 20 21 22 23 24 25 26 27 28 29 30 31 32 33 34 35 36 37 38 39 40 41 42 43 44 45 46 47 48 49 50

000
ASUS43 KBIS 101402
RWRND

NORTH DAKOTA REGIONAL WEATHER ROUNDUP
NATIONAL WEATHER SERVICE BISMARCK ND
800 AM CST SUN DEC 10 2017

NOTE: "FAIR" INDICATES FEW OR NO CLOUDS BELOW 12,000 FEET WITH NO
SIGNIFICANT WEATHER AND/OR OBSTRUCTIONS TO VISIBILITY.


NDZ001>003-009>011-017-101500-
NORTHWEST NORTH DAKOTA

CITY           SKY/WX    TMP DP  RH WIND       PRES   REMARKS
WILLISTON      CLOUDY    36  19  50 SW6       30.08F
MINOT          CLOUDY    35  23  61 W14       29.99S
MINOT AFB      CLOUDY    34  23  63 W14       29.98S
$$

NDZ018>021-031>035-040>046-101500-
SOUTHWEST NORTH DAKOTA

CITY           SKY/WX    TMP DP  RH WIND       PRES   REMARKS
BISMARCK       CLOUDY    31  21  66 W6        30.06S
DICKINSON      CLOUDY    31  18  58 W16       30.07S WCI  20
GARRISON         N/A     33  20  58 NW12      30.02S
HETTINGER ARPT PTCLDY    37  13  37 W13       30.13R
$$

NDZ004>008-012>016-024-026-027-054-101500-
NORTHEAST NORTH DAKOTA

CITY           SKY/WX    TMP DP  RH WIND       PRES   REMARKS
GRAND FORKS    MOCLDY    15  14  95 NW3       30.01F
GRND FRKS AFB  CLOUDY    14  12  91 NW3       30.01F
DEVILS LAKE    CLOUDY    17  15  92 CALM      29.99R
$$

NDZ022-023-025-028>030-036>039-047>053-101500-
SOUTHEAST NORTH DAKOTA

CITY           SKY/WX    TMP DP  RH WIND       PRES   REMARKS
FARGO          CLOUDY    18  15  88 NW5       30.03R WCI  11
JAMESTOWN      CLOUDY    27  24  89 W8        29.99S WCI  19
$$





USA.gov is the U.S. government's official web portal to all federal, state and local government web resources and services.